Regional Weather Roundup
Issued by NWS Upton, NY

Current Version | Previous Version | Text Only | Print | Product List | Glossary Off
Versions: 1 2 3 4 5 6 7 8 9 10 11 12 13 14 15 16 17 18 19 20 21 22 23 24 25 26 27 28 29 30 31 32 33 34 35 36 37 38 39 40 41 42 43 44 45 46 47 48 49 50
296 ASUS41 KOKX 260608 RWROKX REGIONAL WEATHER ROUNDUP NATIONAL WEATHER SERVICE NEW YORK NY 100 AM EST SUN FEB 26 2017 NOTE: "FAIR" INDICATES FEW OR NO CLOUDS BELOW 12,000 FEET WITH NO SIGNIFICANT WEATHER AND/OR OBSTRUCTIONS TO VISIBILITY. NYZ071-072-176-178-NJZ106-104-260700- NEW YORK CITY METRO AREA CITY SKY/WX TMP DP RH WIND PRES REMARKS Central Park CLOUDY 43 32 65 VRB6G20 29.72R Wall St Helipt NOT AVBL LaGuardia APRT CLOUDY 45 33 63 NW18G30 29.69R Kennedy INTL CLOUDY 45 35 68 NW23G32 29.70R Breezy Point N/A 43 N/A N/A NW17G26 N/A Newark/Liberty MOCLDY 44 32 62 W21G32 29.71R Teterboro CLOUDY 44 33 65 NW15G21 29.69R $$ NYZ177-179-078>081-260700- LONG ISLAND NEW YORK CITY SKY/WX TMP DP RH WIND PRES REMARKS Jones Beach N/A 45 N/A N/A NW22 N/A Matinecock PT NOT AVBL Farmingdale CLOUDY 44 37 76 NW13G23 29.66R MacArthur/ISP CLOUDY 43 38 82 NW16G22 29.64R Shirley CLOUDY 42 36 79 NW13G22 29.64R Westhampton CLOUDY 43 34 70 NW12G22 29.64R Southampton NOT AVBL Bridgehampton NOT AVBL East Hampton MOCLDY 42 32 69 NW12G23 29.57R Montauk N/A 44 36 73 NW12G21 29.62R $$ NYZ052-065-067-260700- HUDSON VALLEY CITY SKY/WX TMP DP RH WIND PRES REMARKS White Plains CLOUDY 41 31 67 NW16G29 29.65R Newburgh CLOUDY 39 34 81 NW12G23 29.69R WCI 32 Montgomery PTCLDY 40 30 67 W12 29.69R WCI 33 Poughkeepsie MOCLDY 40 27 59 NW15G22 29.68R WCI 32 Albany CLOUDY 37 29 72 W7 29.68R WCI 32 $$ NJZ001-105-106-008-010-013-015-019>022-104-260700- NEW JERSEY CITY SKY/WX TMP DP RH WIND PRES REMARKS Newark/Liberty MOCLDY 44 32 62 W21G32 29.71R Teterboro CLOUDY 44 33 65 NW15G21 29.69R Caldwell MOCLDY 43 32 65 NW18G29 29.72R Somerville CLOUDY 40 35 83 VRB5 29.73R Linden NOT AVBL Sussex CLOUDY 40 30 67 VRB5 29.71R Andover N/A 39 29 67 VRB7 29.72R WCI 34 Trenton CLEAR 42 26 53 NW14G21 29.74R Millville PTCLDY 43 28 55 W13G22 29.80R Atlantic City MOCLDY 44 29 55 W14G24 29.76R Wrightstown CLEAR 42 27 53 W17G23 29.73R Toms River CLOUDY 44 31 60 W13 29.75R Belmar NOT AVBL $$ PAZ047>061-062-071-260700- EASTERN PENNSYLVANIA CITY SKY/WX TMP DP RH WIND PRES REMARKS Philadelphia PTCLDY 45 25 45 NW18G25 29.79R Allentown MOCLDY 40 23 50 W10G20 29.76R WCI 33 Scranton CLOUDY 35 33 92 NW8 29.75R WCI 29 $$ CTZ002-004>006-009-010-012-RIZ004-006-007-MAZ004-011-015-260700- SOUTHERN NEW ENGLAND IN CT CITY SKY/WX TMP DP RH WIND PRES REMARKS Bradley INTL CLOUDY 40 31 70 NW15G25 29.61R WCI 32 Hartford CLOUDY 41 32 70 NW12G18 29.62R Danbury CLOUDY 40 33 76 NW8G16 29.66R WCI 34 Wtrbury/Oxford CLOUDY 39 28 65 NW10G16 29.64R WCI 32 Bridgeport CLOUDY 44 34 67 NW12 29.64R Meriden PTCLDY 43 29 57 NW10G20 29.64R New Haven CLOUDY 42 32 67 NW12 29.63R Chester N/A 41 32 70 NW16G26 29.59R Groton CLOUDY 43 33 68 NW20G28 29.59R Wilimantic MOCLDY 43 33 68 NW10G25 29.58S IN RI CITY SKY/WX TMP DP RH WIND PRES REMARKS Providence MOCLDY 45 36 70 NW16G24 29.52R Block Island MOCLDY 43 38 82 NW14G20 29.57R Westerly MOCLDY 45 34 65 NW14G25 29.56R IN MA CITY SKY/WX TMP DP RH WIND PRES REMARKS Boston CLOUDY 47 40 76 NW20G29 29.49R Worcester PTCLDY 38 31 76 W18G28 29.50S WCI 28 Westfield CLOUDY 40 31 70 NW13G24 29.59R WCI 32 Provincetown CLOUDY 45 43 93 NW7 29.45S Nantucket LGT RAIN 46 44 93 W13 29.47F VSB 1/4 $$ ANZ330-335-338-340-345-350-353-355-260700- COASTAL MARINE OBSERVATIONS STATION/POSITION TIME SKY/WX TEMP WIND PRES VSBY WAVE AIR SEA DIR/SP/G HT/PER (UTC) (F) (DEG/KT/KT) (MB) (MI) (FT/S) NY HARB ENTRANCE 0450 47 44 290/ 19/ 27 1003.9 4/11 20 S FIRE ISLAND 0550 45 44 290/ 16/ 19 1004.0 6/11 GREAT SOUTH BAY NOT AVBL 23 SSW MONTAUK P 0450 47 45 1001.0 6/11 15 E BARNEGAT LI 0530 44 N/A 5/11 HUDSON CANYON 0450 47 1003.5 8/11 KINGS POINT 0542 43 41 1004.7 EXECUTION ROCKS NOT AVBL CENTRAL LI SOUND 0500 43 330/ 17/ 21 N/A 2/ 3 EASTERN LI SOUND NOT AVBL ROBBINS REEF 0542 44 320/ 18/ 25 1005.7 $$ >>>>>>>>>>>>>>>>>>>>>>>>>>>> KEY <<<<<<<<<<<<<<<<<<<<<<<<<<< > < > SKY/WX - Sky Condition/Present Weather < > TMP - Temperature in Fahrenheit < > DP - Dew Point in Fahrenheit < > RH - Relative Humidity in Percent < > WIND - Direction (from) and Speed in MPH < > PRES - Mean Sea Level Pressure (inches of Hg) < > WCI - Wind Chill Index < > VSB - VISIBILITY IN MILES < > HX - HEAT INDEX < > TC - TEMPERATURE IN CELSIUS < > VRB - VARIABLE WIND DIRECTION < > < >>>>>>>>>>>>>>>>>>>>>>>>>>>> KEY <<<<<<<<<<<<<<<<<<<<<<<<<<<

USA.gov is the U.S. government's official web portal to all federal, state and local government web resources and services.